[Date Prev][Date Next][Thread Prev][Thread Next] - [Date Index][Thread Index][Author Index]

2 Line ISS Keps 4-6



ISS
1 25544U 98067A   04097.24155093  .00027122  00000-0  24437-3 0  5149
2 25544  51.6299 332.3826 0010353   0.8452 140.7703 15.67915979307025


----
Via the sarex mailing list at AMSAT.ORG courtesy of AMSAT-NA.
To unsubscribe, send "unsubscribe sarex" to Majordomo@amsat.org



AMSAT Top AMSAT Home